Wetbulb
31.11 31.32 31.18 31.45 32.18 32.35 32.41 33.00 33.17 34.35 34.30 34.21 36.07 38.25 39.54 39.62 40.51 41.05 41.92 44.26 45.70 47.22 49.05 49.92 49.74 52.68 51.85 52.47 51.85 51.42 51.61 51.09 48.78 40.52 42.53 44.18 44.86 45.56 45.68 45.96 47.92 47.80 48.85
30.35 30.34 30.31 30.88 31.12 30.98 31.44 32.01 32.95 32.53 33.45 33.89 35.38 37.28 38.01 38.47 39.55 39.55 40.33 42.22 43.30 44.44 47.35 49.85 50.21 51.67 52.00 52.20 51.00 49.95 50.91 51.78 48.70 42.05 39.67 40.80 41.50 44.31 43.11 43.41 43.68 44.52 45.35
29.31 29.17 29.25 29.39 29.70 29.93 30.49 31.23 31.67 31.86 32.34 33.29 34.51 35.51 36.02 37.45 38.45 38.80 39.50 40.52 42.81 43.80 45.07 49.09 50.18 50.43 50.89 51.00 50.27 49.77 50.22 49.22 46.93 44.03 38.32 38.55 37.90 40.55 38.50 39.07 39.40 38.74 41.57
28.18 27.95 27.73 28.29 29.00 29.44 30.08 30.59 31.14 31.53 31.57 32.31 33.30 33.91 34.69 36.69 37.89 38.13 38.47 39.42 41.49 43.61 45.55 48.50 49.86 50.64 50.84 50.36 49.85 49.57 48.91 47.69 45.46 43.74 39.72 37.60 36.85 37.46 38.01 35.10 33.36 34.36 34.44
26.67 26.73 26.90 28.08 28.85 29.12 29.29 29.88 30.59 31.00 31.15 31.75 32.33 32.96 33.74 35.53 37.79 37.75 38.92 39.42 40.54 42.15 44.08 46.73 51.22 50.16 48.58 50.07 49.42 48.88 47.90 46.26 44.06 41.51 37.17 35.64 34.60 34.72 35.72 34.84 32.72 31.71 31.67
25.81 25.77 27.01 27.59 28.02 28.33 28.69 28.95 29.18 29.46 30.03 30.71 30.98 31.47 32.00 35.17 38.49 39.57 40.11 40.11 40.67 41.39 42.60 45.02 49.81 47.72 48.04 48.87 48.73 48.36 48.45 45.20 42.47 41.15 37.10 38.09 35.42 35.86 34.59 34.72 31.42 30.87 30.24
25.25 25.82 26.24 26.86 27.04 27.74 28.20 28.19 28.16 28.30 29.19 29.27 30.26 30.80 31.68 34.68 38.37 39.74 40.90 40.41 40.25 41.30 42.60 44.97 46.57 48.80 47.80 48.84 48.37 47.58 47.52 47.36 46.06 44.15 39.80 39.74 35.79 36.20 35.56 33.05 33.22 32.89 29.82
24.18 24.85 25.80 26.28 26.13 26.76 27.23 27.48 27.93 28.35 28.16 28.63 29.47 30.48 31.63 34.99 38.75 39.97 40.59 39.88 40.16 41.43 42.87 44.71 47.18 46.93 47.51 46.62 45.01 42.68 41.79 42.37 43.45 42.12 42.85 39.00 37.36 37.40 37.09 36.62 33.42 27.32 27.29
23.01 23.94 24.93 25.54 24.99 25.42 26.09 27.19 28.27 27.97 27.95 28.42 29.73 30.95 32.57 35.19 38.39 39.26 39.67 39.14 39.47 40.62 42.50 45.01 45.94 45.20 46.32 44.00 39.77 36.40 36.73 37.73 40.90 40.77 40.23 40.09 39.84 39.26 35.53 32.39 29.84 29.16 25.23
22.52 23.40 24.30 24.90 25.06 25.15 26.87 27.62 28.76 28.46 28.40 29.51 30.41 32.32 34.20 35.85 38.04 39.55 41.62 39.65 38.68 37.92 39.25 41.99 44.46 44.06 44.37 42.62 38.32 36.70 34.57 35.70 36.82 37.03 37.44 38.13 38.01 37.80 37.81 35.17 32.99 29.82 26.01
23.09 23.23 23.83 24.54 24.96 26.71 27.38 28.51 29.28 28.92 28.94 29.53 30.77 32.55 34.82 35.78 36.43 39.84 40.88 38.56 38.00 37.44 38.53 40.00 42.48 44.07 43.09 41.56 39.92 37.15 33.78 32.34 32.15 29.40 28.79 28.51 28.50 29.12 29.77 30.35 30.86 30.83 28.14
22.09 22.42 22.87 23.92 25.24 26.39 26.71 27.56 29.18 29.30 29.42 29.66 30.66 32.29 33.94 35.89 37.32 38.17 39.75 40.05 39.38 37.86 38.14 40.35 42.04 42.13 41.03 39.32 36.83 37.44 35.75 32.88 29.88 28.06 26.46 25.68 25.77 26.20 27.10 27.85 27.96 28.10 28.67
20.76 21.17 22.42 23.71 24.86 26.06 26.70 28.20 29.31 29.49 29.22 29.75 31.50 31.89 33.04 35.20 35.75 37.93 39.39 39.69 40.45 38.22 39.28 40.55 40.84 39.44 39.09 38.41 37.77 35.85 33.14 29.53 28.24 26.30 24.45 24.20 25.49 26.41 26.83 26.84 27.14 27.09 26.93
19.87 20.34 22.03 22.95 25.03 26.21 27.21 28.79 29.57 29.37 29.46 30.11 31.57 31.37 32.59 33.43 34.66 36.11 37.99 38.73 39.87 39.41 39.42 37.85 37.58 36.59 36.07 35.34 32.10 30.14 28.76 28.29 26.77 24.77 24.21 25.00 25.65 25.69 25.10 25.86 24.68 24.44 23.73
19.62 20.56 21.65 23.23 24.10 25.45 27.24 29.16 31.31 32.53 32.62 32.14 32.56 32.64 31.75 32.14 34.44 35.36 35.46 35.29 35.11 35.60 34.16 31.66 29.56 28.59 27.05 27.01 27.36 27.79 27.57 26.67 25.13 25.11 24.57 24.36 24.06 24.10 23.37 24.34 23.28 22.54 22.20
19.26 20.64 21.17 23.18 24.22 25.18 25.86 28.13 33.92 34.83 37.16 37.10 36.80 35.29 34.76 35.59 35.99 36.46 36.42 36.56 37.06 36.00 30.53 27.95 27.02 27.12 26.22 25.81 25.01 24.75 25.81 25.43 24.83 25.03 24.72 24.61 23.71 23.16 22.35 22.29 22.40 21.77 20.29
19.55 21.02 22.33 23.23 23.13 23.65 25.18 27.65 29.34 33.34 35.92 36.46 35.98 35.88 35.81 35.31 36.50 36.65 36.97 36.40 36.04 33.46 28.32 27.14 26.21 25.99 25.69 25.78 25.21 24.58 23.85 24.39 24.84 24.11 23.31 22.42 22.40 23.70 21.75 20.62 20.51 20.19 19.39
21.37 23.39 21.98 22.24 23.82 25.36 26.58 28.22 31.76 31.02 30.34 31.96 35.16 35.85 36.05 36.26 36.53 36.22 35.64 32.97 29.12 29.60 27.69 26.34 25.53 25.69 25.19 24.41 24.36 23.76 23.34 23.38 22.75 22.36 21.96 22.01 21.37 20.52 19.93 18.93 19.00 18.33 18.95
20.48 20.46 22.51 24.61 25.47 26.51 27.01 27.82 31.55 31.71 31.34 31.96 32.75 34.78 36.33 36.56 35.88 35.16 33.64 28.98 26.77 25.98 26.16 25.78 26.08 25.67 25.04 24.58 24.28 24.14 23.50 22.29 21.41 20.80 20.44 19.76 20.10 20.20 18.91 18.83 20.06 20.39 19.13
20.32 23.88 25.82 24.23 23.81 22.98 24.22 26.94 29.66 31.44 31.46 32.26 32.11 31.82 32.50 31.74 29.33 28.71 28.93 28.33 27.31 26.51 26.21 25.44 25.28 24.99 24.42 24.09 23.69 24.09 23.72 21.47 20.58 20.16 19.34 19.48 19.70 20.37 19.09 19.60 20.26 19.17 18.86
21.94 22.93 24.33 20.41 20.49 21.32 22.74 25.12 29.60 31.42 31.44 32.23 32.04 32.77 33.66 29.91 28.68 28.19 27.89 27.72 27.01 26.47 25.95 25.27 24.88 24.57 24.54 24.66 24.27 22.93 22.06 21.41 20.65 19.47 19.08 18.99 19.66 18.87 19.56 19.74 19.43 18.44 18.27
21.84 19.97 19.16 18.58 19.35 20.01 21.37 26.23 30.30 31.53 31.75 31.95 31.77 32.96 33.89 29.94 28.68 27.84 27.40 26.93 26.82 26.66 26.34 25.69 24.88 24.72 24.94 24.28 23.47 22.52 21.43 20.54 20.14 19.42 18.53 18.55 19.40 19.60 19.39 18.48 18.31 18.24 18.39
18.62 17.42 17.47 17.86 19.04 21.59 21.62 25.09 31.49 31.66 31.84 31.83 31.49 30.34 29.87 28.56 27.80 27.10 26.33 26.23 26.03 25.78 25.81 25.41 24.55 24.22 24.91 24.56 24.51 23.69 21.88 21.02 20.88 20.41 18.96 19.31 19.32 19.25 18.91 18.23 17.65 17.83 18.34
17.49 16.80 16.82 17.34 18.85 21.67 23.10 25.01 31.75 32.12 31.89 31.02 30.11 29.62 28.54 27.76 26.94 26.18 25.89 25.90 25.61 25.56 25.50 25.08 24.84 24.25 23.85 23.89 23.72 23.41 22.54 22.14 21.50 20.32 19.80 19.18 19.04 20.03 18.34 17.13 17.53 16.05 16.90
16.90 16.64 16.97 17.99 18.92 19.80 22.75 27.57 31.67 31.84 30.82 29.81 29.13 28.52 27.78 27.04 26.07 25.59 25.48 25.45 25.20 24.80 24.44 24.67 24.76 24.14 23.57 22.81 22.57 22.42 23.70 23.63 20.80 19.74 19.85 19.61 18.65 17.65 17.23 17.19 16.98 16.60 15.01
16.37 16.97 17.69 19.81 19.37 20.04 22.18 28.85 31.36 30.15 29.11 28.70 28.34 27.83 27.13 26.27 25.80 25.43 25.18 24.94 24.57 24.50 24.48 24.79 24.58 23.95 23.44 23.36 23.55 25.55 26.40 25.66 23.48 22.96 20.50 19.35 18.01 17.74 17.09 15.45 14.84 15.98 14.06
MSLP
1025.37 1024.80 1024.15 1023.50 1023.00 1022.56 1021.97 1021.37 1020.90 1020.39 1019.70 1019.17 1018.58 1017.89 1017.28 1016.61 1016.16 1015.95 1015.40 1014.75 1014.02 1013.56 1013.05 1012.73 1012.46 1012.48 1012.57 1012.81 1013.20 1013.54 1013.85 1014.23 1015.14 1016.80 1017.09 1017.28 1017.53 1017.76 1018.27 1018.56 1018.68 1019.13 1019.72
1025.21 1024.64 1023.94 1023.23 1022.66 1022.08 1021.41 1020.72 1020.20 1019.60 1019.05 1018.65 1018.05 1017.43 1016.65 1016.03 1015.44 1015.27 1014.79 1014.20 1013.59 1012.91 1012.26 1011.70 1011.50 1011.58 1011.69 1012.11 1012.45 1012.93 1013.06 1013.32 1014.20 1015.76 1016.91 1017.31 1017.78 1018.19 1018.55 1018.63 1018.90 1019.37 1020.04
1024.94 1024.40 1023.61 1022.88 1022.21 1021.53 1020.89 1020.32 1019.79 1019.29 1018.74 1018.26 1017.64 1016.97 1016.23 1015.66 1014.90 1014.69 1014.21 1013.57 1012.94 1012.29 1011.68 1010.88 1010.57 1010.62 1010.77 1011.26 1011.61 1012.31 1012.59 1013.04 1013.31 1014.55 1016.12 1017.15 1017.95 1018.15 1018.72 1019.11 1019.53 1020.08 1020.56
1024.67 1024.02 1023.23 1022.53 1021.79 1021.07 1020.48 1019.93 1019.39 1018.84 1018.24 1017.61 1016.97 1016.31 1015.59 1014.91 1014.14 1013.78 1013.33 1012.75 1012.10 1011.41 1010.81 1010.17 1009.50 1009.66 1009.89 1010.33 1010.76 1011.39 1011.96 1012.63 1013.14 1014.01 1015.36 1016.51 1017.42 1018.03 1018.49 1019.16 1020.27 1020.78 1021.35
1024.32 1023.64 1022.83 1022.18 1021.52 1020.80 1020.07 1019.40 1018.81 1018.27 1017.60 1016.96 1016.26 1015.56 1014.93 1014.25 1013.29 1012.98 1012.49 1011.84 1011.31 1010.64 1010.02 1009.36 1008.26 1008.62 1009.02 1009.46 1010.03 1010.52 1011.20 1011.75 1012.85 1013.80 1014.88 1015.81 1017.17 1017.87 1018.23 1018.96 1020.12 1021.02 1021.83
1023.99 1023.23 1022.45 1021.69 1020.95 1020.21 1019.44 1018.73 1018.11 1017.48 1016.86 1016.25 1015.55 1014.83 1014.07 1013.27 1012.42 1012.11 1011.65 1011.04 1010.51 1009.93 1009.22 1008.45 1007.87 1007.69 1008.14 1008.55 1009.09 1009.70 1010.13 1010.73 1012.18 1013.12 1014.20 1015.11 1016.15 1016.73 1017.51 1018.50 1019.73 1020.86 1022.08
1023.60 1022.73 1021.97 1021.21 1020.35 1019.56 1018.80 1018.09 1017.40 1016.75 1016.16 1015.47 1014.70 1013.99 1013.07 1012.20 1011.52 1011.03 1010.57 1010.05 1009.49 1008.90 1008.33 1007.71 1007.26 1006.95 1007.52 1007.94 1008.42 1009.07 1009.52 1010.19 1010.71 1011.68 1013.01 1013.80 1015.15 1015.64 1016.61 1018.23 1019.08 1019.84 1020.95
1023.20 1022.32 1021.52 1020.79 1019.93 1019.13 1018.32 1017.50 1016.75 1016.13 1015.45 1014.69 1013.88 1013.12 1012.24 1011.25 1010.60 1010.01 1009.50 1009.04 1008.41 1007.83 1007.28 1006.78 1006.25 1006.26 1006.72 1007.24 1007.78 1008.87 1009.72 1010.29 1011.08 1011.48 1012.18 1013.21 1013.87 1014.86 1016.01 1016.95 1018.48 1019.99 1021.30
1022.79 1021.91 1021.10 1020.40 1019.48 1018.69 1017.77 1016.86 1016.08 1015.47 1014.69 1013.88 1013.10 1012.14 1011.28 1010.28 1009.68 1009.01 1008.46 1007.88 1007.26 1006.78 1006.31 1005.88 1005.57 1005.77 1006.20 1007.03 1008.15 1008.79 1010.16 1010.93 1011.53 1011.89 1012.46 1013.29 1014.02 1014.97 1016.02 1017.17 1018.72 1019.53 1021.30
1022.43 1021.53 1020.76 1020.02 1019.06 1018.13 1017.12 1016.14 1015.34 1014.76 1013.79 1012.93 1011.95 1011.17 1010.35 1009.35 1008.74 1007.92 1006.86 1006.47 1006.17 1005.92 1005.59 1005.26 1005.16 1005.31 1005.98 1006.32 1007.56 1009.11 1010.45 1011.56 1011.81 1012.71 1013.47 1014.15 1014.93 1015.75 1016.46 1016.87 1017.77 1018.88 1020.27
1022.35 1021.28 1020.28 1019.46 1018.59 1017.42 1016.41 1015.44 1014.49 1013.72 1012.87 1011.98 1011.10 1010.17 1009.32 1008.71 1008.00 1007.25 1006.45 1005.94 1005.49 1005.44 1005.25 1004.97 1005.10 1005.43 1006.09 1006.78 1007.31 1008.84 1009.90 1011.75 1012.92 1013.51 1014.28 1015.19 1016.10 1016.88 1017.40 1017.83 1018.30 1018.80 1019.81
1022.15 1020.92 1019.80 1018.81 1017.81 1016.73 1015.82 1014.63 1013.70 1012.88 1012.01 1011.10 1010.26 1009.24 1008.58 1007.93 1007.46 1006.85 1006.22 1005.69 1005.41 1005.21 1005.26 1005.16 1005.48 1006.00 1006.91 1007.56 1008.36 1009.64 1010.78 1012.00 1013.12 1014.15 1015.13 1016.21 1016.92 1017.77 1018.34 1018.82 1019.33 1019.84 1020.21
1021.70 1020.50 1019.39 1018.17 1017.07 1016.06 1015.00 1013.87 1012.91 1012.10 1011.32 1010.33 1009.48 1008.75 1008.02 1007.46 1007.03 1006.48 1005.89 1005.50 1005.21 1005.35 1005.48 1005.52 1006.28 1007.09 1007.81 1008.67 1009.45 1010.58 1011.61 1012.62 1013.60 1014.71 1015.93 1017.00 1017.80 1018.52 1019.08 1019.74 1020.40 1020.94 1021.46
1021.29 1020.18 1018.93 1017.66 1016.36 1015.21 1014.30 1013.31 1012.29 1011.40 1010.51 1009.68 1008.88 1008.33 1007.70 1007.19 1006.79 1006.35 1005.77 1005.55 1005.55 1005.63 1006.08 1006.83 1007.35 1008.20 1008.78 1009.84 1011.08 1011.82 1012.61 1013.36 1014.03 1015.16 1016.50 1017.71 1018.58 1019.19 1019.79 1020.41 1020.92 1021.58 1022.03
1020.86 1019.79 1018.54 1017.33 1016.08 1014.81 1013.72 1012.60 1011.59 1010.70 1009.94 1008.95 1008.22 1007.85 1007.50 1006.98 1006.69 1006.48 1006.23 1006.16 1006.26 1006.46 1006.82 1007.84 1008.58 1009.57 1010.34 1011.25 1012.03 1012.75 1013.69 1014.42 1015.14 1016.27 1017.13 1018.09 1018.93 1019.64 1020.43 1021.04 1021.47 1021.86 1022.21
1020.31 1019.20 1018.15 1016.82 1015.61 1014.55 1013.37 1011.74 1010.72 1010.03 1009.04 1008.35 1007.72 1007.40 1007.13 1006.90 1006.66 1006.55 1006.55 1006.69 1006.97 1007.34 1007.91 1008.66 1009.58 1010.36 1011.02 1011.85 1012.67 1013.70 1014.62 1015.28 1016.13 1016.91 1017.75 1018.52 1019.26 1020.00 1020.80 1021.51 1021.78 1022.11 1022.76
1019.96 1018.82 1017.62 1016.48 1015.40 1014.34 1013.07 1011.75 1010.18 1009.03 1008.69 1007.97 1007.48 1007.12 1006.91 1006.81 1006.72 1006.80 1006.93 1007.37 1007.90 1008.25 1008.77 1009.75 1010.36 1011.13 1011.84 1012.59 1013.40 1014.32 1015.31 1016.19 1016.86 1017.56 1018.34 1019.19 1019.87 1020.51 1021.16 1021.76 1022.29 1022.77 1023.38
1019.32 1018.33 1017.31 1016.20 1015.10 1013.96 1012.82 1011.60 1010.32 1009.37 1008.55 1007.86 1007.48 1007.16 1007.02 1007.07 1007.16 1007.42 1007.72 1008.11 1008.83 1009.51 1009.98 1010.59 1011.28 1011.98 1012.70 1013.42 1014.26 1015.02 1016.02 1016.86 1017.60 1018.34 1019.05 1019.73 1020.44 1020.96 1021.64 1022.25 1022.79 1023.23 1023.64
1018.74 1017.74 1016.68 1015.55 1014.62 1013.63 1012.57 1011.48 1010.24 1009.34 1008.68 1008.07 1007.73 1007.47 1007.48 1007.80 1008.04 1008.30 1008.54 1008.91 1009.57 1010.32 1010.94 1011.58 1012.20 1012.85 1013.59 1014.27 1014.98 1015.73 1016.48 1017.38 1018.25 1018.95 1019.69 1020.30 1020.93 1021.39 1022.08 1022.70 1023.15 1023.52 1023.92
1018.18 1017.12 1016.05 1015.21 1014.25 1013.34 1012.37 1011.25 1010.10 1009.20 1008.62 1008.16 1007.93 1007.92 1008.14 1008.52 1008.81 1009.14 1009.49 1009.85 1010.35 1011.02 1011.69 1012.30 1013.04 1013.66 1014.30 1014.91 1015.62 1016.28 1017.07 1018.05 1018.87 1019.55 1020.23 1020.84 1021.49 1021.96 1022.50 1022.98 1023.39 1023.82 1024.26
1017.63 1016.58 1015.80 1015.11 1014.16 1013.24 1012.24 1011.10 1009.91 1009.05 1008.56 1008.23 1008.13 1008.17 1008.54 1009.01 1009.46 1009.79 1010.20 1010.65 1011.07 1011.65 1012.28 1012.90 1013.61 1014.21 1014.83 1015.43 1016.07 1016.84 1017.67 1018.54 1019.29 1019.99 1020.66 1021.34 1021.92 1022.46 1022.92 1023.31 1023.72 1024.20 1024.46
1017.45 1016.69 1015.80 1014.93 1013.98 1012.97 1011.95 1010.76 1009.57 1008.85 1008.47 1008.32 1008.35 1008.52 1008.95 1009.56 1010.07 1010.44 1010.87 1011.32 1011.83 1012.36 1012.90 1013.42 1014.12 1014.73 1015.26 1015.79 1016.46 1017.22 1018.03 1018.84 1019.64 1020.34 1021.04 1021.68 1022.23 1022.72 1023.20 1023.71 1024.12 1024.44 1024.65
1017.60 1016.69 1015.65 1014.67 1013.77 1012.67 1011.56 1010.37 1009.16 1008.71 1008.45 1008.45 1008.62 1009.06 1009.51 1010.09 1010.61 1011.05 1011.50 1012.06 1012.54 1013.05 1013.57 1014.05 1014.64 1015.32 1015.89 1016.42 1016.99 1017.47 1018.08 1018.98 1019.74 1020.41 1021.17 1021.85 1022.42 1022.96 1023.48 1023.95 1024.37 1024.70 1024.92
1017.58 1016.63 1015.56 1014.47 1013.42 1012.30 1011.21 1010.13 1009.00 1008.66 1008.50 1008.70 1009.05 1009.49 1009.97 1010.55 1011.11 1011.68 1012.19 1012.69 1013.17 1013.69 1014.16 1014.67 1015.17 1015.71 1016.36 1016.95 1017.48 1018.01 1018.62 1019.30 1019.99 1020.66 1021.24 1021.93 1022.64 1023.26 1023.79 1024.31 1024.70 1025.03 1025.20
1017.59 1016.52 1015.41 1014.30 1013.23 1012.19 1011.03 1009.79 1008.98 1008.73 1008.80 1009.07 1009.48 1009.93 1010.46 1011.04 1011.64 1012.24 1012.79 1013.26 1013.75 1014.23 1014.79 1015.27 1015.73 1016.26 1016.79 1017.37 1017.96 1018.50 1019.06 1019.68 1020.37 1021.09 1021.71 1022.24 1022.84 1023.47 1024.00 1024.48 1024.87 1025.28 1025.65
1017.69 1016.56 1015.34 1014.18 1013.15 1012.13 1011.00 1009.76 1009.14 1009.08 1009.24 1009.55 1009.94 1010.38 1010.88 1011.51 1012.12 1012.72 1013.29 1013.79 1014.30 1014.88 1015.39 1015.82 1016.31 1016.85 1017.44 1017.98 1018.44 1018.80 1019.36 1020.04 1020.73 1021.37 1022.01 1022.65 1023.23 1023.76 1024.22 1024.72 1025.14 1025.50 1025.93
Wind_Speed
13 13 14 13 12 12 11 11 12 13 13 13 14 14 14 13 11 12 13 13 12 11 11 12 15 14 9 9 7 10 9 5 6 2 1 1 2 5 5 4 8 7 8
13 14 14 14 13 12 13 13 13 14 14 14 14 15 14 15 12 12 14 13 12 12 12 13 15 10 13 10 7 10 10 10 5 5 3 2 2 4 3 7 5 5 6
13 14 14 14 14 14 14 14 15 15 15 15 14 15 15 15 13 14 14 14 14 13 13 14 13 14 12 9 9 9 8 6 5 5 4 2 2 2 4 5 5 5 4
14 14 15 15 15 14 14 14 14 15 15 15 15 15 15 15 14 15 15 15 14 14 12 15 15 14 13 12 10 11 8 7 5 6 5 4 2 3 3 4 4 3 3
14 15 15 15 14 14 14 14 14 14 14 15 15 15 15 14 11 13 14 14 14 14 14 14 14 15 15 14 9 10 12 9 8 6 3 4 4 5 7 4 4 6 3
14 15 15 15 14 14 14 14 14 14 14 14 15 15 15 11 18 23 21 14 14 14 14 13 10 16 16 20 20 18 15 12 9 6 4 6 6 6 6 9 8 5 4
15 15 15 15 15 15 15 15 15 15 14 15 15 15 15 14 21 24 25 13 13 13 13 13 11 9 13 14 19 19 18 19 17 12 11 7 8 9 10 8 8 5 4
15 14 14 14 16 17 16 16 15 13 14 14 14 15 15 13 24 25 24 15 13 14 14 13 12 10 13 10 9 9 7 7 7 6 7 8 6 11 11 7 10 9 7
15 15 15 15 17 18 18 17 15 13 13 14 14 14 15 14 22 25 23 12 12 12 11 12 10 9 16 23 14 12 10 9 11 15 16 16 19 20 16 11 8 9 4
15 16 16 16 16 16 16 17 14 12 14 12 14 14 19 15 19 25 19 9 10 6 5 6 15 13 23 28 17 14 13 8 13 13 12 16 15 15 15 5 10 8 5
17 17 16 16 17 16 16 14 13 13 13 13 14 13 13 13 12 18 16 4 4 4 3 3 5 21 23 22 22 13 16 15 17 12 11 9 9 9 7 7 7 6 5
17 17 17 17 14 13 15 15 14 13 12 12 12 11 9 9 12 13 14 10 6 3 4 4 9 20 22 23 17 28 28 19 10 10 10 8 8 8 9 9 11 10 9
16 18 17 17 15 14 14 14 11 11 10 10 9 8 7 5 5 12 11 10 7 4 4 14 22 23 23 21 29 28 21 10 11 11 10 8 7 9 12 11 12 15 13
17 17 16 15 16 14 11 10 9 9 9 9 8 7 6 4 4 4 2 2 10 10 19 14 17 17 20 20 15 12 9 8 10 10 10 10 8 8 8 7 8 8 8
16 15 15 12 13 14 12 10 9 10 11 9 7 5 5 4 3 3 3 3 4 10 14 10 9 9 10 9 9 10 9 9 11 10 10 9 9 9 8 7 5 4 5
16 13 13 12 11 11 11 12 16 18 20 18 13 8 4 8 6 7 10 12 18 19 9 9 9 8 9 9 10 10 9 11 9 9 9 8 8 8 8 6 6 7 7
15 15 12 13 11 11 11 11 12 12 15 13 9 7 5 2 7 10 16 18 17 14 8 8 8 8 9 9 9 9 9 8 9 8 8 8 8 7 9 7 7 7 7
14 24 12 11 11 11 11 11 9 9 9 6 5 4 3 7 15 18 19 15 8 9 7 8 9 8 9 9 8 9 9 8 8 8 8 7 7 8 7 7 7 7 6
14 12 12 11 10 13 11 10 8 7 6 4 2 3 8 15 15 14 13 7 8 8 7 8 8 8 8 8 8 8 9 8 8 8 7 7 7 7 7 7 7 10 8
13 22 18 11 10 10 9 10 9 6 6 3 0 2 4 5 5 6 5 6 7 7 7 8 7 8 8 8 8 9 9 9 8 7 7 7 7 6 7 7 6 6 5
11 12 21 10 9 9 9 9 9 5 5 2 1 4 11 6 4 5 5 5 7 7 8 8 7 7 7 8 8 8 8 8 7 7 7 7 6 7 7 7 6 5 4
10 11 10 10 10 10 9 9 9 5 3 2 2 7 15 6 5 5 6 6 6 7 6 7 7 7 7 8 8 9 9 9 8 7 7 7 7 7 7 6 6 5 4
10 11 11 10 9 14 10 9 6 3 2 2 5 6 6 6 6 5 7 7 7 7 6 7 8 7 7 7 6 7 9 8 8 8 8 8 7 7 6 6 5 4 4
11 11 11 11 9 9 9 9 4 4 2 4 5 6 7 6 7 7 7 7 7 7 7 7 7 9 8 7 6 7 7 7 7 8 10 8 7 9 6 6 5 5 4
11 11 11 10 10 9 10 8 3 1 4 5 6 6 7 8 8 7 7 7 7 7 8 7 7 10 10 11 10 10 13 17 10 10 7 8 8 9 6 5 5 4 3
12 12 10 9 9 9 8 7 1 3 4 5 6 7 8 8 8 8 7 8 8 8 8 7 9 12 12 10 12 16 19 18 14 16 8 7 7 6 6 6 6 4 4
Wind_Direction
322 317 314 312 309 305 300 298 299 298 301 298 294 294 293 292 287 288 283 277 270 265 255 245 245 233 228 223 205 220 213 187 195 140 114 127 125 147 140 133 139 131 135
316 313 311 309 307 305 304 306 306 304 302 299 297 294 294 293 287 287 287 282 277 271 276 244 241 232 219 215 201 222 216 193 161 161 143 139 103 142 131 131 111 100 125
315 312 309 309 308 307 308 305 304 302 299 295 293 291 291 287 281 281 281 280 275 271 269 259 242 237 218 207 197 208 204 188 153 148 138 115 123 142 95 73 99 86 91
313 309 308 308 307 306 304 301 299 298 296 293 292 290 289 283 277 283 284 280 274 270 267 267 239 229 216 203 200 198 189 178 154 145 137 126 121 112 119 128 107 85 98
309 306 304 302 300 299 298 297 297 295 293 292 290 289 284 278 271 282 281 278 278 277 274 280 230 224 203 194 196 190 184 166 162 152 134 112 148 154 177 143 118 120 74
307 303 303 301 301 299 299 299 298 296 294 292 288 287 284 275 274 282 284 276 274 268 271 272 248 210 209 199 195 192 181 161 163 156 151 170 171 161 139 154 143 140 163
305 304 304 304 304 304 305 303 299 296 294 290 288 286 282 276 282 285 280 275 271 263 261 262 249 220 202 200 195 183 181 177 170 172 168 177 161 167 145 146 152 133 110
304 304 306 307 308 307 304 299 297 295 292 289 286 284 281 280 284 284 284 277 266 259 256 260 237 196 185 169 151 129 119 110 147 145 159 147 130 145 152 143 134 104 88
307 309 310 311 310 307 303 301 295 293 289 285 282 281 279 279 286 287 281 268 261 257 254 243 207 180 169 142 130 114 97 94 89 99 113 124 133 136 128 122 132 130 114
314 312 310 307 305 301 296 299 293 287 283 285 284 279 278 285 288 286 283 246 250 242 235 215 176 161 154 144 133 129 115 119 118 107 102 104 111 125 133 122 149 134 122
311 309 306 306 301 296 299 295 291 289 286 284 283 282 286 278 280 303 308 296 233 195 188 148 144 148 148 139 130 137 131 123 109 105 98 91 84 83 85 85 85 117 122
310 308 307 305 302 301 298 296 292 290 287 287 286 294 289 275 281 286 293 292 251 164 159 123 126 131 133 122 112 124 122 116 113 107 104 98 98 93 89 85 83 79 71
312 311 308 305 304 301 296 295 294 292 288 287 286 292 290 284 283 295 293 279 189 127 123 124 121 118 117 114 123 123 119 119 120 112 107 97 94 105 103 95 88 89 83
311 309 308 307 308 308 300 293 285 289 290 288 286 287 291 287 290 290 297 125 139 120 115 111 113 110 109 112 108 102 104 111 114 112 111 109 110 109 104 110 107 106 93
310 309 307 306 305 306 301 296 289 286 286 290 282 270 291 290 279 257 115 91 106 118 111 103 103 104 105 104 97 95 98 104 108 114 116 118 116 114 107 111 108 97 98
311 310 306 310 309 307 306 305 300 301 303 306 301 280 275 269 251 162 127 124 122 120 104 109 108 111 112 115 110 105 106 111 112 115 113 117 117 118 117 102 97 100 106
308 305 307 311 306 305 306 307 307 315 314 310 322 310 285 252 157 144 124 113 110 108 102 104 106 109 110 107 110 111 112 109 113 108 112 113 114 116 115 113 108 109 105
308 309 307 302 301 302 303 305 303 307 316 320 335 341 130 128 118 113 106 96 85 80 95 104 106 108 109 108 110 113 114 112 108 112 113 111 113 116 117 116 117 118 110
313 306 301 300 305 305 304 299 303 301 304 307 328 40 114 116 104 97 94 97 105 100 101 100 105 107 108 109 111 111 113 113 115 116 114 115 117 122 117 118 123 123 115
307 305 314 311 308 306 301 300 300 304 303 298 104 87 107 87 85 80 81 98 105 106 109 107 105 108 113 114 115 117 112 114 116 114 115 115 116 119 122 123 116 117 110
299 315 316 309 304 302 298 295 296 296 295 265 142 128 129 104 96 95 98 98 108 112 112 113 115 113 116 118 115 115 115 116 117 119 120 119 121 122 122 116 116 116 119
323 314 311 308 305 302 298 293 289 289 281 192 122 132 121 100 97 97 95 94 95 102 109 115 112 115 120 123 124 122 123 124 125 125 123 126 126 124 123 124 121 114 95
319 314 311 308 304 304 302 296 288 287 251 138 126 120 111 108 102 98 99 103 105 106 106 109 112 110 107 108 115 127 132 134 134 133 133 132 130 128 130 127 124 112 103
319 316 312 310 308 308 300 298 299 293 170 126 124 118 114 111 108 101 100 103 103 102 105 109 113 116 112 109 110 109 112 118 127 131 131 132 135 134 128 122 118 108 92
323 319 317 312 312 309 307 300 307 264 112 123 120 117 113 112 108 104 104 104 105 106 105 110 111 114 112 114 116 118 129 129 124 126 125 126 126 129 128 122 116 105 95
329 327 319 323 322 315 308 301 2 94 111 112 116 118 118 114 111 109 110 109 107 104 108 107 109 112 115 113 120 130 132 135 136 136 126 125 129 127 125 119 115 112 113